Theta_e
317 317 317 317 317 317 318 318 318 318 319 319 319 319 319 319 319 320 320 320 320 321 321 320 320 322 323 322 322 322 322 312 310 306 308 310 319 328 328 328 329 330 329 312 306 304 301 301 301 301 301 299 298 296 296 302 302 302 294 290 289 290 290 292 294 294 295 296 297 298 299 298 295 295 298 297 297 296 295 295 295 296 297 299 300 298 298 300
316 316 316 316 316 317 317 317 317 317 317 317 318 318 318 318 319 319 320 320 320 320 321 321 321 321 322 321 321 322 317 310 307 308 308 318 326 329 328 327 328 328 323 304 302 301 300 298 298 299 297 295 300 295 300 297 303 297 290 291 290 291 293 296 296 298 298 298 299 299 298 296 296 297 297 297 294 295 295 295 294 297 298 300 299 299 298 299
316 316 316 316 316 316 316 316 317 317 317 317 317 317 317 318 318 318 319 319 320 320 320 320 321 321 322 321 320 320 314 308 307 305 310 325 327 326 328 328 326 329 312 302 301 302 300 299 300 298 296 294 296 293 297 294 300 294 293 289 290 292 294 297 298 298 299 298 296 297 299 298 297 297 299 297 297 295 295 297 296 296 299 300 301 299 299 300
315 315 315 315 315 315 315 316 316 316 316 316 316 316 316 317 317 318 318 319 319 319 320 320 321 321 321 321 320 316 312 308 301 306 307 324 327 327 327 324 326 327 312 309 307 306 304 303 300 297 295 293 293 296 294 295 296 293 293 289 289 293 294 298 299 300 302 301 299 299 299 298 300 299 297 297 295 295 297 300 299 299 300 301 301 300 299 299
315 315 315 315 315 315 315 315 315 316 316 315 316 315 315 316 316 317 317 318 318 319 319 319 320 321 321 320 319 314 308 297 301 308 311 321 326 326 324 327 330 320 316 311 307 305 302 301 300 297 294 290 292 294 292 294 296 292 291 293 292 292 292 297 299 300 300 301 300 299 296 298 302 300 298 297 295 297 300 302 300 301 302 302 301 300 299 298
315 315 315 314 314 314 314 314 315 315 315 315 315 315 315 315 316 316 316 317 318 318 318 319 320 320 321 320 315 312 303 288 306 307 319 324 325 325 325 327 329 322 315 307 304 303 303 301 299 295 292 290 289 290 289 294 296 291 291 290 292 295 294 296 297 297 298 297 297 295 297 297 297 297 299 299 298 301 305 302 299 299 301 301 300 300 299 298
314 314 314 314 314 314 314 314 314 314 314 314 314 315 315 315 315 315 316 316 317 317 317 318 319 320 320 319 313 310 301 302 307 312 321 323 325 328 328 328 328 315 307 304 303 301 301 299 298 296 293 292 290 290 291 293 295 293 291 291 293 294 294 297 297 296 295 294 295 298 298 296 296 294 299 297 299 302 304 304 303 303 302 298 299 299 299 299
314 314 314 313 313 313 313 313 313 313 314 314 314 314 314 314 315 315 315 315 316 316 317 318 319 320 319 310 306 301 301 301 310 313 323 323 325 323 327 322 321 312 305 301 301 300 300 297 296 297 293 290 289 291 291 291 292 291 291 292 293 294 294 295 295 295 295 295 296 296 294 295 297 297 298 297 300 303 303 303 302 303 301 299 299 300 301 301
314 313 313 313 312 312 312 312 312 312 313 313 314 314 314 314 314 315 315 315 315 316 316 317 318 319 319 310 302 297 298 308 311 309 316 317 315 317 318 312 317 311 306 305 304 302 301 298 299 298 290 289 291 290 289 289 286 290 293 294 294 294 295 295 293 293 293 294 295 293 293 295 297 298 295 297 300 302 303 302 302 302 301 300 300 301 301 301
313 313 313 312 312 312 311 311 311 312 312 312 313 314 314 314 314 314 314 314 315 315 316 317 318 319 311 305 300 294 303 310 310 309 310 310 309 308 316 314 315 312 304 304 304 302 300 301 299 302 301 295 293 290 289 288 286 288 290 291 292 293 293 294 293 295 295 294 294 292 293 294 296 295 292 300 302 302 301 301 301 299 298 299 300 300 300 300
313 313 312 312 312 311 311 311 311 311 312 312 313 313 313 313 313 314 314 314 314 315 315 317 318 315 305 303 297 294 309 309 310 307 308 310 309 307 305 305 309 308 304 302 302 302 302 302 304 303 299 294 294 291 291 289 290 289 290 290 289 291 291 291 291 291 293 292 293 293 292 294 294 293 294 299 296 297 294 294 293 293 294 296 298 298 299 298
313 312 312 311 311 311 311 311 311 311 311 312 312 312 313 313 313 313 313 313 314 314 316 317 319 309 305 300 296 297 309 310 306 306 309 308 308 308 307 307 305 304 302 300 302 305 305 304 304 300 293 296 290 291 291 290 290 290 290 287 288 289 289 291 291 293 291 291 292 292 290 289 290 291 297 299 300 299 297 296 294 295 296 297 297 296 296 297
312 312 311 311 311 310 310 310 310 311 311 311 311 312 312 312 312 313 313 313 314 314 315 316 316 307 303 294 299 306 309 312 307 307 309 309 310 310 308 307 307 306 304 301 300 304 305 304 303 298 297 295 291 289 291 293 290 289 289 286 287 286 286 291 292 292 291 293 292 292 283 288 292 295 297 300 299 297 295 294 293 294 294 295 295 295 295 296
311 311 310 310 311 310 310 310 310 310 310 310 310 311 311 312 312 312 312 312 313 314 315 317 310 308 302 295 302 309 310 309 307 306 307 310 309 308 307 308 307 305 303 303 302 300 302 301 300 299 298 294 291 294 292 289 289 286 286 287 282 282 281 286 288 288 289 290 291 293 284 288 292 295 297 298 296 293 292 290 291 290 291 293 293 293 294 295
311 311 311 310 310 309 309 309 309 310 310 310 310 310 311 311 311 312 313 313 313 314 315 316 311 308 296 297 305 310 320 306 306 304 308 307 305 306 306 306 305 303 302 301 302 302 303 302 299 294 290 294 295 290 285 285 285 285 284 281 281 282 283 287 289 288 287 288 290 291 284 287 291 293 294 294 292 289 289 290 289 290 291 293 293 293 293 295
311 311 311 310 309 309 308 309 309 309 309 309 309 310 310 311 311 312 313 314 316 316 313 309 309 306 297 292 302 314 306 301 301 305 307 309 306 304 305 303 303 303 303 301 303 302 300 299 294 291 292 293 290 285 283 282 281 282 283 280 281 281 282 285 287 287 289 287 289 290 285 288 290 292 292 290 289 289 287 289 291 292 294 294 294 294 293 294
309 310 310 309 309 308 308 308 308 309 309 309 309 309 311 311 312 312 313 315 313 315 312 306 305 306 293 300 309 301 299 301 307 307 306 308 306 304 304 302 301 299 299 299 299 299 299 295 294 290 292 286 284 284 282 279 278 279 282 280 281 282 282 281 285 286 287 287 285 288 286 289 292 292 294 294 292 291 291 291 292 293 294 294 294 293 293 293
309 308 308 309 308 307 308 308 308 308 308 308 309 310 309 312 313 313 314 313 310 312 313 311 303 297 295 301 294 296 304 303 304 306 306 309 307 305 303 301 299 296 296 294 298 296 297 293 289 284 286 286 287 283 279 277 279 277 280 280 281 281 282 283 283 285 288 287 285 285 286 288 290 291 292 293 293 291 291 291 292 293 293 293 293 293 292 293
309 308 308 307 307 307 308 308 308 308 308 309 309 312 313 313 308 308 309 310 305 297 294 298 293 287 285 294 299 302 305 306 304 306 305 306 309 307 303 303 299 295 292 289 290 294 293 290 287 284 281 282 284 286 284 284 282 282 283 282 282 281 284 284 287 287 287 286 284 284 285 288 289 290 292 292 291 290 291 292 291 292 292 292 293 293 292 292
309 308 308 307 307 307 308 308 307 307 308 306 304 304 304 302 302 301 305 306 302 297 297 299 299 293 294 295 300 303 307 307 301 301 307 309 307 304 300 299 296 295 291 286 290 291 289 283 281 282 284 287 288 289 290 287 286 286 285 284 283 283 285 288 288 288 286 285 284 286 287 287 288 289 291 292 292 290 290 290 291 292 293 293 293 293 294 293
309 309 308 307 306 306 307 307 307 307 308 305 303 300 296 294 287 289 298 301 304 302 299 299 300 297 296 298 299 300 297 298 302 301 305 311 309 302 297 295 291 289 289 290 289 293 291 284 285 286 287 288 289 290 289 288 286 286 284 283 284 283 283 287 288 289 287 286 283 285 285 287 289 291 292 293 292 291 291 291 291 292 293 293 292 292 292 293
308 308 307 306 306 306 306 307 306 307 308 304 301 298 300 297 300 301 296 289 293 302 302 301 298 297 299 298 300 300 299 296 297 299 304 308 304 298 297 292 288 286 288 291 290 287 283 282 286 288 289 288 289 288 288 288 286 286 285 285 284 285 285 288 287 288 289 287 285 286 286 288 290 291 293 293 292 293 293 292 293 293 293 293 293 291 291 291
308 307 307 306 305 305 306 307 306 307 305 301 298 299 299 301 301 304 299 292 292 295 298 298 297 297 296 299 299 299 294 291 292 296 300 302 296 299 293 289 288 288 291 290 286 283 283 284 288 288 289 289 289 290 289 287 287 285 285 283 283 285 283 282 288 287 288 287 287 288 286 288 291 292 293 294 293 293 293 292 293 293 293 293 294 293 292 292
307 307 306 305 305 305 306 306 306 303 300 300 299 299 301 302 303 303 298 288 285 289 294 296 298 294 296 297 301 298 293 293 292 293 302 299 294 297 292 289 287 288 287 290 289 286 286 288 291 289 289 289 288 289 288 286 285 285 286 284 284 285 285 285 286 288 288 288 288 287 286 287 288 287 288 289 287 289 290 291 290 290 292 293 293 292 293 294
307 306 305 305 305 306 306 306 300 298 297 298 297 300 302 303 302 301 294 287 283 286 295 296 299 297 298 302 299 297 293 293 293 296 300 299 295 293 293 293 289 285 287 289 289 287 288 291 291 291 290 290 288 285 286 286 283 282 285 287 287 287 286 286 286 286 284 282 285 286 280 280 282 284 285 289 288 290 289 289 291 289 290 291 293 293 293 294
307 306 305 305 305 305 306 299 297 301 300 297 297 298 298 298 299 300 290 274 276 281 291 290 300 295 304 297 298 295 294 290 294 297 300 299 301 295 293 291 290 285 286 287 288 286 287 289 289 288 289 288 289 287 287 288 283 282 285 287 288 286 285 284 284 284 279 279 284 286 279 277 282 286 288 290 289 289 291 290 290 289 291 291 293 293 293 295
307 306 305 305 305 305 299 293 302 301 297 297 298 301 301 300 300 298 287 273 273 283 288 294 294 293 300 297 296 294 284 283 297 298 299 301 298 301 290 287 290 289 289 286 283 284 290 288 288 289 288 286 285 284 287 288 284 283 286 286 287 286 285 284 284 283 282 282 284 285 284 278 280 285 287 287 285 288 289 290 288 288 290 292 292 292 292 293
307 306 305 305 305 304 299 299 299 297 298 299 299 299 301 299 299 296 281 269 269 293 288 290 295 301 300 297 296 290 288 294 290 295 299 299 299 296 294 287 288 288 289 286 281 287 290 287 286 287 286 285 284 287 287 289 286 284 287 288 287 288 285 284 284 283 281 280 280 279 282 279 279 283 286 286 286 287 286 286 286 288 291 291 292 294 293 293
307 306 304 304 305 305 303 300 299 296 301 298 297 299 301 299 294 284 275 271 281 287 299 290 301 298 294 297 294 291 292 293 290 294 297 298 299 294 289 289 288 288 287 288 285 284 287 289 286 289 287 285 286 283 285 287 285 286 287 288 285 284 284 284 282 283 280 277 277 278 280 277 280 281 283 283 282 284 285 287 287 289 289 290 292 292 293 292
307 306 305 305 303 302 300 299 297 299 299 299 298 298 298 293 287 277 270 268 289 281 291 292 291 288 291 290 289 292 291 291 292 294 295 293 294 296 295 293 290 290 288 287 287 288 288 291 290 287 286 288 286 286 284 287 285 287 285 286 281 281 281 279 279 280 277 273 277 279 279 279 277 281 283 282 286 285 285 287 288 288 290 290 291 291 292 292
307 306 305 304 298 300 301 296 296 297 297 296 297 298 294 285 276 268 267 274 286 285 289 289 287 291 289 286 284 289 288 289 291 291 290 293 291 291 290 291 290 283 282 284 285 285 287 287 286 286 287 286 286 285 285 286 285 286 284 282 280 281 278 278 274 275 274 272 277 278 279 279 275 280 283 285 284 283 285 288 288 287 288 291 291 292 291 290
307 306 306 302 300 302 295 295 297 297 296 295 297 293 285 277 276 273 272 287 278 281 282 282 288 286 286 286 284 286 287 288 289 289 287 287 285 287 288 284 284 278 276 279 282 282 284 285 284 287 289 288 284 284 284 282 284 284 281 279 276 271 272 271 273 272 271 273 279 278 279 278 279 285 287 287 288 288 286 287 289 289 288 289 290 291 289 289
307 306 306 303 304 298 298 298 297 296 296 297 295 288 280 272 269 274 276 275 278 283 283 286 285 285 285 285 284 285 286 285 287 288 287 286 285 287 286 286 284 283 276 278 281 280 282 282 285 285 287 287 286 283 280 282 282 282 282 278 273 269 269 266 265 266 269 276 279 278 281 278 282 286 289 290 292 292 292 290 289 289 289 289 291 291 290 290
307 306 301 302 302 301 298 298 297 297 297 296 294 283 275 270 272 285 279 277 279 285 286 285 286 284 283 284 282 287 283 285 286 287 288 283 284 282 286 288 285 285 284 279 279 278 274 276 280 285 284 285 287 286 283 278 281 283 280 282 277 269 266 265 265 270 271 272 277 278 275 274 277 284 286 287 288 287 287 287 287 287 288 288 290 289 289 290
307 304 301 300 301 301 300 298 297 296 294 293 287 280 275 274 272 277 277 277 280 284 284 284 286 283 283 283 282 285 285 284 286 285 285 284 282 279 281 285 288 285 280 280 280 277 280 279 281 284 284 285 285 286 283 281 282 281 280 280 277 278 274 273 269 268 269 270 271 274 276 276 283 285 288 291 290 289 288 288 287 288 289 289 290 291 292 292
305 301 301 297 298 299 299 298 295 297 294 290 284 278 277 278 276 277 281 287 284 284 284 283 281 282 280 278 279 285 289 285 285 284 283 283 282 283 282 283 287 289 285 283 279 277 278 276 282 283 283 284 284 284 287 283 277 280 281 277 279 279 280 273 272 272 272 270 273 273 278 281 284 288 291 287 284 286 285 286 286 288 288 288 291 291 291 292
299 299 295 296 298 298 299 298 299 297 295 291 282 278 280 278 281 282 292 288 287 288 282 279 278 282 274 278 280 282 285 285 284 284 279 281 284 284 282 284 286 288 291 288 281 280 278 276 283 282 283 285 283 284 285 283 283 281 278 278 280 282 281 275 271 266 265 267 271 274 275 279 277 279 285 284 284 283 284 285 287 288 289 288 291 291 292 292
298 296 296 295 297 299 299 299 298 296 294 288 282 286 276 281 285 288 288 287 287 284 281 282 277 284 274 277 277 281 284 284 280 282 274 280 278 285 283 285 288 291 291 288 284 281 284 278 278 281 282 282 282 284 284 284 285 281 280 280 282 274 275 273 268 268 266 264 264 271 274 276 279 281 281 286 286 288 285 285 286 288 288 289 289 290 289 288
297 294 289 294 298 299 298 300 298 294 290 283 281 282 279 281 286 287 290 290 289 286 284 282 280 279 276 276 277 282 283 282 280 282 277 279 280 285 288 288 287 288 290 290 285 281 283 276 276 281 282 283 282 281 278 280 284 280 283 280 278 278 272 270 276 268 270 265 265 269 270 278 280 281 281 286 287 287 285 284 285 287 289 290 289 289 290 290
292 289 287 298 298 300 300 299 294 292 284 281 282 282 279 283 286 289 288 292 288 286 284 282 280 279 278 279 282 281 282 279 281 282 278 279 284 285 287 289 287 286 286 289 287 284 282 280 271 277 279 281 280 280 280 281 280 280 281 276 278 276 277 278 275 273 272 264 263 263 271 277 280 283 283 287 287 288 286 286 286 286 286 287 288 289 290 290
295 289 289 297 299 301 300 295 289 285 285 279 282 282 280 281 284 288 290 289 291 291 287 283 282 281 280 278 280 280 282 279 281 280 281 278 282 281 286 290 288 287 284 284 286 283 280 279 276 277 279 276 280 281 282 282 284 282 282 281 282 279 275 271 273 273 267 271 271 264 274 279 286 286 287 287 287 286 284 285 286 285 286 287 288 288 289 291
290 282 288 299 300 300 294 285 284 284 278 282 283 285 283 294 284 287 289 288 290 289 289 287 283 284 279 281 281 282 281 278 280 280 280 282 283 285 285 289 290 289 290 284 286 284 283 278 275 272 277 281 281 281 281 281 280 278 282 280 282 280 278 271 268 269 270 271 267 266 268 279 284 284 286 285 285 285 284 282 284 284 285 285 287 288 289 289
288 285 295 298 301 298 290 281 283 284 282 279 284 288 286 284 284 285 288 288 289 289 289 287 287 285 282 282 279 279 283 281 280 281 280 281 281 287 284 289 288 288 287 284 285 285 290 279 274 278 276 276 279 280 279 280 281 282 281 279 280 281 282 282 277 271 271 269 272 270 270 280 285 283 285 284 282 281 281 281 284 286 285 285 285 287 288 289
289 289 290 298 299 297 287 278 278 280 282 280 283 285 287 286 284 282 285 287 289 287 288 287 287 288 286 284 283 280 283 279 282 283 283 282 283 283 284 286 290 289 288 287 286 286 281 279 279 269 268 269 271 277 277 275 278 279 279 280 283 283 282 279 277 274 274 273 275 274 271 279 286 283 283 283 285 285 285 284 283 286 287 285 285 287 288 289
290 293 292 294 297 294 285 283 279 281 282 282 281 282 284 285 285 288 288 287 289 286 287 286 289 286 286 282 282 281 281 286 280 283 285 282 284 284 283 286 288 290 286 284 291 288 283 278 279 271 271 268 265 266 268 273 278 278 276 278 281 282 280 279 276 273 273 271 276 271 275 284 287 286 289 289 288 287 289 288 285 285 285 288 288 288 287 287
286 281 287 288 292 291 289 290 286 282 280 281 280 282 283 283 283 286 289 289 291 288 287 287 287 287 286 284 280 279 281 281 283 276 282 282 283 285 281 280 284 285 282 288 288 287 278 277 281 280 278 277 279 277 276 279 278 278 279 280 281 282 282 282 275 272 276 275 274 278 282 284 285 287 287 289 290 289 290 290 290 292 289 287 285 286 288 289
290 284 285 279 287 286 285 288 285 285 281 283 278 282 282 283 284 285 288 286 288 289 287 288 288 286 284 284 283 281 282 280 279 278 278 281 281 284 282 282 283 283 290 287 286 280 274 277 281 281 281 283 283 282 279 281 279 278 280 279 281 281 281 281 279 279 282 275 276 281 282 281 284 286 288 288 289 290 290 289 289 288 289 291 291 290 291 288
284 286 288 288 284 281 282 283 286 285 286 284 282 284 282 282 283 281 285 286 285 289 287 285 287 289 287 286 285 282 279 281 278 277 281 282 284 284 285 284 284 286 286 285 284 284 278 278 281 280 281 282 282 282 280 279 280 280 280 281 280 281 280 279 280 283 282 278 279 281 282 281 284 287 289 290 290 290 289 290 290 290 290 289 286 287 289 290
288 286 286 289 285 286 286 286 287 285 284 285 284 284 282 282 281 284 283 284 285 285 288 284 285 288 288 288 286 285 282 278 278 277 280 281 283 283 282 283 282 279 283 282 284 275 279 277 276 280 281 281 282 282 282 280 280 281 280 280 281 280 280 282 282 284 284 282 284 283 281 282 286 288 290 291 292 291 290 288 286 286 287 287 286 287 288 290
285 285 284 287 286 284 285 286 285 285 282 286 282 283 283 282 281 283 283 283 281 284 287 285 286 287 288 288 287 285 285 286 285 280 282 284 280 282 281 283 280 281 280 281 280 277 284 276 284 276 276 279 281 281 280 280 279 279 281 281 280 280 281 282 283 283 284 283 284 283 283 283 288 291 291 292 292 293 292 290 291 291 288 285 285 286 288 289
290 291 291 287 284 285 285 285 285 284 282 283 282 284 284 283 282 284 284 288 286 284 286 286 288 286 288 288 288 287 290 287 287 286 286 286 284 284 284 281 284 280 279 279 279 277 280 273 273 270 274 273 276 280 281 279 278 277 279 280 279 280 279 281 280 283 282 282 283 282 281 282 289 292 291 291 291 291 290 291 291 291 289 287 287 287 288 288
292 292 291 289 284 288 285 285 285 284 280 284 284 284 284 284 285 285 282 287 288 289 289 289 288 287 286 287 287 289 290 289 290 292 291 289 288 282 287 283 286 283 280 282 280 277 279 274 274 270 273 274 274 274 273 274 276 277 278 279 281 283 284 284 284 283 285 286 283 280 282 288 290 291 288 288 289 289 290 290 290 287 287 288 288 288 289 289
Wind_Speed
6 7 8 7 7 7 6 6 5 4 4 4 4 5 4 5 6 6 7 9 10 11 11 13 12 12 12 12 12 11 10 3 8 4 1 9 7 3 4 4 8 9 3 1 1 0 3 2 4 2 2 3 2 2 4 1 1 2 4 4 9 5 6 2 5 4 2 3 3 4 5 5 5 3 3 1 2 2 3 4 5 5 5 5 4 4 2 3
6 8 8 8 8 8 7 6 5 4 4 4 4 5 5 5 5 6 7 8 9 11 11 12 13 12 12 12 12 12 7 2 6 8 12 9 4 3 4 5 5 5 2 2 4 3 1 3 3 1 3 3 0 3 3 2 3 5 1 5 12 4 4 1 2 6 4 6 5 4 6 2 6 1 2 3 4 3 4 5 3 6 9 9 9 3 3 5
6 8 9 9 9 9 8 7 7 5 4 4 4 5 5 5 6 6 7 8 9 10 12 12 12 12 12 12 12 10 4 4 3 5 5 2 3 2 4 5 4 3 3 3 4 5 4 1 0 2 2 3 2 6 3 4 4 4 5 7 7 3 3 5 5 10 6 5 8 8 8 7 5 2 0 6 10 6 8 11 6 7 11 10 10 4 3 5
5 7 9 10 10 10 10 9 8 7 5 4 4 5 6 6 6 6 7 8 9 10 11 12 12 12 12 12 12 3 2 1 1 3 2 3 2 4 3 3 3 2 0 1 3 3 3 1 2 3 1 3 3 1 3 4 3 2 5 6 3 5 6 8 11 12 13 10 8 7 8 10 9 7 3 4 7 8 9 14 11 12 12 14 11 7 4 6
5 7 8 10 10 11 11 10 10 9 8 6 5 5 5 6 5 6 7 8 9 10 11 12 13 13 12 12 13 1 1 3 3 1 2 2 3 1 1 1 3 1 2 2 2 2 3 1 0 0 3 4 2 1 3 4 4 2 7 6 6 2 4 7 11 10 8 10 11 9 10 11 8 7 6 8 14 12 13 8 8 13 13 12 11 9 5 7
6 6 8 9 10 11 12 12 11 11 10 8 6 5 5 5 5 6 6 7 8 9 11 11 13 13 12 13 7 1 1 4 0 2 3 2 4 1 1 3 4 1 0 0 3 1 2 0 1 1 2 3 4 5 3 5 4 7 3 3 6 8 7 4 5 6 7 7 8 6 8 4 6 6 7 10 14 16 16 6 6 7 9 8 7 6 4 7
5 6 7 9 10 11 12 12 12 12 11 10 8 6 5 4 4 5 6 6 7 8 9 11 12 13 12 12 3 1 3 6 3 5 5 4 2 2 3 1 1 0 1 1 0 2 1 2 1 2 1 3 3 4 6 3 3 5 8 2 6 8 11 11 10 9 6 7 9 7 7 11 10 15 10 10 10 20 18 12 12 14 11 5 7 7 8 9
6 7 8 9 10 11 12 12 12 12 12 12 11 9 7 5 5 5 6 6 6 7 8 11 11 11 11 3 1 1 0 6 12 3 5 2 1 2 3 1 1 1 1 3 4 3 2 3 5 1 0 4 2 5 2 4 1 4 6 5 5 6 7 9 10 10 9 10 10 10 12 16 14 15 9 12 14 23 18 8 12 17 11 8 10 13 14 15
7 8 8 9 10 11 12 12 12 12 13 13 12 11 9 7 6 6 6 6 6 7 9 9 11 9 7 1 1 2 7 6 5 5 3 1 2 1 2 2 2 0 1 1 3 4 3 2 0 1 2 2 1 3 4 2 6 5 10 6 6 7 7 8 7 8 9 6 7 9 15 15 18 12 17 18 24 25 14 12 19 19 15 14 15 16 16 17
8 9 10 9 10 10 11 12 12 12 12 13 13 13 10 9 8 7 7 6 6 6 8 9 9 8 3 1 1 2 6 3 1 3 4 2 2 4 3 3 1 1 1 2 1 4 3 2 3 2 1 3 2 6 1 3 5 2 4 8 9 10 7 6 7 9 10 7 7 8 15 18 7 4 12 15 23 14 12 18 17 12 15 15 14 15 16 17
9 10 9 9 9 10 11 11 12 12 13 13 14 13 12 10 9 8 8 7 6 6 7 9 7 4 1 1 3 8 3 3 0 2 3 2 1 3 1 1 2 1 4 3 3 3 4 3 1 1 1 4 2 5 0 4 0 3 5 3 5 8 6 5 6 11 7 6 9 11 17 16 8 4 18 25 3 3 4 8 6 7 9 11 14 14 13 12
10 10 9 10 9 10 11 11 12 12 13 13 14 14 12 11 10 9 8 7 6 6 6 5 3 1 0 0 7 9 2 2 2 2 3 3 1 4 3 4 2 2 2 2 2 0 3 3 4 3 5 1 3 3 5 2 0 3 0 4 7 6 7 7 12 14 4 9 5 4 7 12 4 12 31 19 6 11 14 15 7 12 15 13 13 12 11 13
10 9 10 10 10 10 10 11 12 13 13 14 14 14 14 12 11 9 9 8 6 5 5 5 2 1 1 3 10 8 2 1 1 4 1 1 0 1 3 3 3 1 1 2 1 1 3 5 3 3 3 0 1 2 2 1 4 1 0 3 6 6 7 16 8 12 6 9 5 6 9 12 15 24 26 14 11 11 15 15 9 11 11 10 10 10 11 12
10 10 11 10 10 10 11 11 12 13 13 13 14 14 14 14 12 11 9 8 7 5 4 4 2 1 0 6 6 3 2 1 2 2 2 1 2 2 1 4 4 3 2 1 0 1 3 2 5 2 0 3 3 3 6 4 1 3 3 1 4 3 7 6 3 2 6 3 9 8 10 17 16 17 12 12 7 10 12 8 10 9 8 9 9 8 11 13
9 10 9 10 10 10 11 11 12 12 13 13 14 14 14 14 13 11 9 7 6 3 5 1 3 2 1 7 6 7 4 1 2 3 2 4 3 1 1 1 2 4 1 1 1 0 2 5 4 1 2 1 0 4 6 2 3 1 2 7 3 6 7 6 6 5 6 2 6 9 9 19 19 14 8 4 2 3 8 10 9 9 10 10 10 9 10 12
9 10 9 10 9 10 11 11 12 12 13 13 14 15 14 15 13 12 9 7 4 3 2 3 0 2 2 8 1 4 1 2 4 3 1 3 4 3 0 2 2 2 1 1 1 3 2 3 1 4 1 1 2 3 4 5 4 2 5 5 4 2 7 8 2 3 9 1 1 12 10 3 11 7 6 1 1 1 4 9 11 14 16 14 11 10 9 10
9 9 10 10 10 10 11 11 12 12 13 13 15 14 15 13 12 10 7 3 1 3 3 2 2 3 1 2 1 1 4 3 2 1 1 0 4 3 2 2 1 1 1 2 3 5 2 2 1 1 0 2 2 3 1 6 6 5 0 5 4 5 4 4 8 3 1 4 4 8 9 15 16 9 14 11 6 9 12 13 14 15 14 13 12 11 10 11
9 9 9 10 10 10 10 11 11 12 13 13 13 13 13 14 11 9 3 2 2 2 2 0 2 1 9 1 2 4 0 1 2 2 2 1 4 4 3 1 0 3 2 2 1 2 1 0 2 5 0 2 1 3 6 9 8 5 4 4 7 3 5 9 3 3 1 1 5 6 13 20 17 17 17 15 11 9 14 13 16 17 15 13 11 10 11 11
9 8 8 9 9 10 10 10 10 11 12 13 13 15 9 4 2 1 1 2 4 1 1 4 3 4 2 3 4 3 1 2 1 0 3 2 1 2 2 0 2 1 0 2 1 2 1 1 2 0 3 3 8 8 11 9 4 6 3 2 3 6 8 6 5 5 3 6 6 6 11 15 18 17 15 12 8 11 14 12 13 14 13 12 11 11 11 11
9 7 8 7 9 10 10 10 10 10 11 6 5 4 3 1 2 1 2 4 6 8 4 9 10 1 3 4 2 1 1 1 2 3 0 0 4 2 0 1 2 3 2 1 0 1 3 2 4 7 9 10 9 10 11 4 1 2 2 3 7 7 11 7 5 5 2 2 8 10 11 14 20 16 18 17 11 11 12 15 15 14 12 12 12 12 12 11
8 9 8 8 8 9 10 10 9 9 9 3 3 2 2 5 3 4 5 9 11 7 7 5 15 8 3 0 0 3 3 2 0 1 2 1 2 4 2 2 2 1 1 3 3 0 2 4 9 9 9 9 10 7 6 7 5 5 6 5 8 4 11 7 7 4 2 3 3 4 8 15 18 17 18 17 11 16 15 15 16 16 13 12 12 12 10 11
8 10 9 7 7 9 10 10 9 8 7 1 1 3 2 2 0 3 0 7 4 15 12 10 2 4 1 4 3 3 3 1 2 2 2 4 2 4 1 2 2 3 0 2 1 1 3 7 12 4 6 5 5 5 6 7 7 4 5 5 6 8 5 10 5 2 0 1 7 5 10 19 19 19 21 19 18 15 11 10 14 12 13 11 11 9 8 7
8 7 9 6 8 9 9 9 9 8 2 1 4 4 4 2 5 7 1 3 8 3 8 7 5 8 4 3 1 3 2 5 5 3 5 4 1 5 4 3 3 1 0 4 5 1 3 7 12 6 3 5 5 4 4 4 3 5 3 3 9 2 4 8 2 3 2 0 7 8 12 18 19 19 21 20 13 14 10 9 12 11 13 14 13 8 7 8
7 7 6 8 8 8 9 9 9 5 4 5 6 7 3 4 8 10 1 4 5 3 3 5 6 3 5 4 3 5 5 3 2 4 3 4 5 2 3 5 3 1 4 6 6 7 9 4 2 3 5 7 6 3 4 4 7 3 4 5 7 6 5 6 8 8 7 4 1 4 8 13 12 13 10 8 4 4 6 6 7 8 10 12 9 6 7 8
8 7 6 6 8 8 9 8 3 3 1 2 4 6 9 9 5 4 1 5 2 3 2 1 3 2 4 1 2 5 1 1 5 1 4 4 3 2 3 2 2 5 5 4 3 4 13 7 3 2 2 4 3 4 5 5 6 3 5 10 10 7 7 6 5 8 7 7 3 4 6 6 6 6 9 10 6 10 3 3 9 6 7 6 7 8 4 4
8 5 4 6 6 7 7 3 3 1 5 3 3 2 3 3 3 1 1 2 5 3 2 3 1 0 1 1 2 3 4 4 2 3 3 5 2 2 1 1 3 6 4 3 5 4 7 2 1 4 3 1 2 4 3 6 5 2 6 4 7 6 5 5 6 2 3 3 1 4 2 11 5 11 12 14 12 15 15 8 8 7 9 5 7 5 4 5
9 8 4 6 6 5 2 3 0 2 3 3 2 5 5 4 1 0 0 3 3 3 4 1 1 2 1 2 4 3 1 4 1 1 1 1 3 1 2 4 0 1 2 2 3 5 1 2 1 0 3 4 3 6 4 8 3 5 1 3 3 2 3 3 2 5 5 2 4 2 6 6 13 11 8 8 7 13 14 12 7 8 6 5 5 4 4 5
11 8 6 5 8 6 2 2 4 2 2 0 3 4 5 4 0 1 3 2 2 1 1 1 0 2 1 1 7 3 1 0 0 2 0 2 1 2 1 4 6 6 3 3 7 3 2 1 1 3 2 3 6 6 3 7 6 3 0 2 3 1 1 2 1 2 1 4 10 1 0 1 8 9 7 4 8 10 10 9 7 3 3 4 4 5 5 4
11 10 7 7 7 10 5 3 2 5 1 3 4 4 4 1 1 4 2 1 1 2 2 3 3 1 1 1 2 2 0 1 0 1 3 1 2 1 2 5 3 0 2 6 8 2 2 3 3 5 5 6 5 1 3 8 5 2 1 2 3 3 3 1 1 1 2 1 9 2 5 3 11 4 6 1 3 8 7 6 5 2 3 4 5 5 4 3
12 12 9 8 4 2 3 1 6 1 4 4 4 4 1 2 3 2 2 5 1 1 1 1 1 3 1 5 1 1 1 0 2 1 1 2 2 1 0 2 1 1 3 1 4 6 2 3 2 3 5 4 3 0 1 1 2 1 2 0 3 4 2 2 5 2 2 3 9 9 5 4 7 6 7 3 4 3 2 2 2 1 2 4 6 5 4 2
13 13 10 9 4 1 1 3 3 1 3 3 4 1 1 3 3 3 3 5 2 1 1 0 1 3 5 6 4 0 2 0 0 1 0 1 1 2 2 0 2 1 1 3 6 3 1 0 1 2 3 3 3 3 2 0 0 1 0 1 4 2 5 2 2 3 2 6 6 3 2 2 6 6 6 7 4 2 4 1 3 6 4 5 5 4 4 3
14 14 12 7 5 3 5 2 3 0 1 3 2 4 4 2 5 4 6 4 1 2 3 2 0 3 4 1 3 5 7 1 2 3 4 3 3 5 6 8 5 2 4 4 7 2 4 8 2 0 3 8 3 2 1 2 2 3 3 3 1 4 3 2 1 2 5 6 0 3 2 1 11 13 4 7 9 7 6 5 5 7 6 6 6 6 4 4
14 14 14 8 7 4 4 3 1 2 3 3 2 3 3 4 5 4 3 0 2 2 3 3 4 4 4 1 3 2 1 4 2 3 4 0 3 7 4 4 4 4 2 1 4 2 7 1 1 3 2 4 6 6 2 1 1 5 5 4 4 0 2 4 4 2 5 3 4 1 0 5 5 9 11 18 17 12 11 9 9 9 8 7 9 5 4 5
15 13 8 6 6 6 3 4 2 2 4 1 4 3 4 3 6 5 6 3 1 1 3 2 3 3 5 7 3 6 1 3 7 4 5 2 2 4 6 8 4 4 0 1 2 5 2 4 5 6 3 1 5 5 8 3 7 8 3 8 7 6 4 3 3 4 4 4 2 3 1 7 0 4 1 6 7 5 6 6 7 8 8 5 2 2 4 4
16 11 5 3 5 5 6 4 2 2 1 0 4 5 9 8 2 5 4 3 3 1 1 1 5 3 2 2 1 3 3 2 4 5 5 5 5 4 5 7 9 4 1 2 4 2 7 7 2 1 1 1 6 0 4 5 2 2 3 5 3 7 5 3 4 1 2 2 3 2 6 4 7 5 12 11 9 8 6 9 7 10 8 2 4 6 6 6
10 4 4 4 5 3 6 5 4 3 1 4 7 6 12 8 5 3 3 5 2 4 4 4 3 2 2 2 2 5 5 1 2 3 1 5 3 4 4 4 9 15 9 9 4 4 1 4 1 4 2 1 1 0 0 2 4 2 5 5 6 2 3 1 1 1 2 3 8 1 8 9 7 13 14 9 5 7 2 2 4 9 5 5 7 6 6 7
4 2 4 3 6 4 7 6 6 5 2 6 7 13 7 3 4 4 3 4 3 11 5 6 4 7 3 5 3 4 4 2 2 4 4 2 4 8 4 6 5 10 15 8 3 3 4 3 0 2 2 0 1 1 0 0 2 4 3 6 1 1 3 3 3 1 1 3 6 1 7 10 2 9 6 6 5 4 2 0 1 2 2 5 7 7 8 8
3 1 6 7 7 7 8 8 9 5 3 6 15 5 2 7 3 4 2 4 3 1 5 6 4 8 4 4 3 5 3 5 3 3 3 5 4 4 4 2 7 13 16 5 1 3 3 5 2 1 1 4 2 1 2 1 1 3 1 0 2 2 1 1 3 2 1 2 4 5 4 8 8 10 4 9 8 11 4 0 1 3 5 7 7 7 5 3
3 0 5 5 6 13 8 11 7 8 6 7 11 6 3 6 1 3 7 6 1 5 5 6 4 3 5 4 3 0 7 7 5 7 3 3 1 5 8 7 2 6 8 9 4 2 1 2 3 1 1 1 1 3 6 4 1 1 1 1 0 1 2 4 6 3 3 3 2 6 3 10 8 8 9 9 8 9 6 4 5 8 8 7 6 6 6 6
5 2 6 1 2 10 12 12 8 5 4 15 11 8 2 7 5 6 4 7 4 4 4 5 3 3 3 6 6 6 4 3 7 6 2 2 6 2 4 3 3 2 6 9 6 0 3 1 4 1 3 1 3 5 9 11 9 2 2 3 1 1 3 1 1 3 2 4 3 1 7 9 7 6 5 10 9 9 5 7 6 6 8 8 7 7 7 7
4 1 3 2 7 12 14 9 7 12 10 3 2 8 0 5 2 5 6 4 1 2 3 3 6 6 6 3 5 2 4 5 5 5 5 3 6 2 7 8 6 4 3 3 2 2 1 1 7 0 0 4 8 4 4 6 8 10 12 10 11 7 2 2 9 1 2 2 3 3 10 12 9 6 9 8 6 5 4 5 6 6 7 7 7 7 7 7
7 4 2 5 9 16 14 10 6 3 3 10 11 7 5 4 1 2 3 1 2 3 2 1 2 4 4 5 5 7 5 4 6 4 4 7 5 6 2 7 8 12 10 8 10 5 5 3 2 4 8 9 6 1 1 1 1 1 7 6 8 4 4 4 4 6 1 3 4 3 1 14 4 3 1 3 5 5 5 4 7 5 4 5 7 6 7 8
7 4 3 3 10 13 7 5 2 7 7 5 2 5 1 2 4 3 5 2 3 3 1 3 6 5 6 4 3 3 8 4 8 8 5 6 6 11 5 10 9 7 4 0 2 3 5 1 1 7 4 4 2 2 1 2 1 1 4 1 4 9 12 10 6 6 6 1 2 1 2 12 4 1 2 1 4 4 4 5 5 5 5 3 2 6 7 7
6 3 2 3 3 5 5 12 11 11 8 4 3 6 6 5 4 2 5 4 7 3 6 4 2 6 5 3 3 6 6 2 6 8 4 4 3 4 4 9 13 6 7 7 7 5 5 4 5 1 4 4 3 2 1 2 1 4 3 6 9 3 2 2 4 1 1 7 8 8 10 14 1 1 4 5 5 5 5 5 3 4 5 3 4 5 5 6
4 2 1 3 4 6 10 3 1 8 12 11 5 9 7 6 6 8 7 7 3 3 3 4 5 3 3 2 4 2 5 12 4 7 4 3 6 0 5 10 10 7 3 2 1 6 4 5 7 4 8 6 4 2 5 7 10 3 3 3 7 12 9 6 6 4 7 5 10 6 9 18 8 6 10 12 9 8 9 7 4 5 6 8 6 6 5 4
5 6 3 3 5 6 6 0 3 2 6 9 8 8 7 10 2 4 10 6 7 2 2 1 0 4 5 3 4 6 8 6 8 2 5 3 3 1 3 3 8 4 3 3 0 5 3 0 6 9 10 11 12 6 2 4 5 5 7 10 11 11 12 7 5 4 11 7 8 11 16 19 18 14 14 18 16 15 16 10 10 12 8 7 6 7 7 7
2 5 8 8 2 7 9 7 6 4 4 4 6 4 13 16 6 2 10 6 6 8 2 5 4 5 4 5 7 7 8 6 6 1 5 4 2 1 3 2 3 1 3 2 2 4 2 2 8 10 11 12 12 9 6 6 5 6 6 7 9 11 13 14 11 12 9 2 15 10 15 13 22 23 22 19 18 17 13 9 9 9 11 13 11 9 10 9
6 3 5 6 9 11 13 15 13 7 5 3 7 3 10 15 12 10 1 4 1 7 8 2 6 13 9 13 5 5 5 9 7 7 2 6 1 1 0 0 3 1 2 1 0 4 5 7 6 6 10 14 12 11 4 3 5 6 8 8 10 12 10 14 15 18 11 12 20 6 13 14 21 22 26 24 19 13 11 13 9 11 11 9 6 8 11 13
1 1 2 4 6 3 17 12 18 16 17 14 4 9 10 13 19 14 6 3 4 4 13 10 13 19 14 8 9 10 6 6 7 5 8 6 9 4 3 1 2 3 2 0 1 2 2 7 5 7 10 9 10 11 10 9 7 7 6 10 9 12 16 19 20 22 21 19 12 6 9 19 18 22 25 24 20 9 8 6 6 7 9 7 7 10 12 14
10 8 5 1 1 1 3 4 12 18 17 17 10 15 13 13 14 8 4 7 4 7 5 14 19 7 11 11 13 17 16 14 9 7 4 6 6 6 5 7 3 2 1 5 2 2 6 6 6 2 4 7 10 10 9 9 8 16 15 12 7 8 13 21 19 18 15 19 11 16 16 16 20 22 22 21 17 15 14 15 17 15 9 6 7 11 13 13
1 3 3 6 8 7 3 6 8 14 11 11 13 21 10 11 12 11 10 7 15 10 10 23 17 8 13 16 19 25 19 8 9 9 11 14 15 9 9 5 8 5 3 2 1 2 4 4 2 2 3 5 3 10 13 8 10 17 19 12 10 13 16 14 17 10 9 15 18 16 12 18 26 21 11 14 17 20 23 24 18 13 8 8 12 14 13 13
2 1 2 4 7 8 9 6 8 7 12 16 19 19 8 15 9 8 8 10 13 12 8 16 12 10 8 15 25 27 10 7 13 17 12 8 3 2 10 4 12 11 8 9 1 5 7 4 3 1 6 9 4 2 4 7 13 22 23 17 19 23 23 12 12 8 19 20 18 15 22 22 20 13 10 15 15 21 22 21 18 6 8 11 14 16 16 14
Wind_Direction
322 318 320 325 330 334 332 343 359 11 11 10 357 5 354 1 352 344 340 327 318 311 312 311 311 310 313 321 325 323 331 360 324 316 240 242 232 222 266 260 264 270 231 171 277 149 284 265 244 257 143 134 242 177 237 163 156 137 204 203 238 222 215 213 226 202 232 249 245 251 239 225 263 308 258 5 276 247 272 272 284 301 261 236 255 43 132 138
317 311 316 320 328 330 329 331 342 355 4 358 354 349 350 342 346 343 336 328 317 308 307 309 312 311 316 321 320 321 340 345 296 282 245 254 244 274 276 273 270 263 150 206 198 179 180 276 272 71 125 187 210 202 139 243 149 184 211 182 237 169 239 245 250 280 287 265 272 288 303 244 253 234 294 306 282 291 296 273 267 271 283 286 284 272 107 138
310 309 311 315 320 322 323 326 333 341 345 350 345 339 341 338 344 340 333 326 315 315 309 308 307 310 309 315 310 320 16 335 288 286 276 168 200 246 268 249 274 256 196 192 196 155 171 193 226 118 213 207 232 210 180 240 153 235 168 229 240 214 242 258 271 273 265 292 299 319 302 310 264 243 230 258 271 268 253 262 275 260 261 263 264 274 153 173
298 306 305 307 310 313 315 314 319 326 333 333 332 330 332 341 340 339 329 325 321 317 317 313 309 307 311 307 310 320 90 281 325 251 251 229 207 219 227 278 287 283 116 215 161 132 159 121 225 163 195 192 266 138 155 244 144 264 203 223 222 227 244 251 255 260 271 276 276 278 295 290 286 261 205 260 289 256 257 243 235 250 251 258 255 252 186 199
305 298 305 307 305 309 308 310 310 311 315 320 319 321 323 329 337 330 330 320 324 319 320 315 309 308 311 310 309 325 320 356 262 223 239 263 267 237 252 282 252 246 209 232 94 79 87 85 60 153 153 218 246 113 241 231 198 132 219 210 206 257 237 249 248 250 255 265 277 280 280 273 278 270 249 233 246 257 247 254 216 235 245 252 265 249 196 203
282 294 306 303 306 305 307 308 308 308 307 308 310 312 311 318 325 326 319 320 317 324 318 313 308 310 310 311 310 246 69 308 227 241 202 212 260 201 155 259 253 253 341 249 175 189 191 41 85 38 231 176 211 193 265 209 177 238 274 236 227 228 234 246 250 237 231 254 255 265 265 291 260 272 255 248 239 253 250 255 239 239 246 252 260 261 217 206
315 317 308 303 303 303 306 307 312 308 304 301 299 297 300 301 314 312 309 311 317 323 318 306 308 313 316 316 268 185 180 257 307 237 153 205 238 245 104 226 342 352 193 165 232 153 149 180 143 222 288 242 246 197 246 216 198 213 236 220 248 225 233 243 253 261 264 253 260 249 270 264 276 277 259 251 260 260 266 264 268 266 261 243 256 242 233 214
313 297 291 297 295 300 300 303 305 307 305 300 296 292 294 295 293 301 302 310 319 307 311 304 307 312 329 344 284 324 134 251 246 197 190 198 299 305 100 135 162 2 210 194 150 147 105 211 208 98 208 211 228 183 247 234 171 211 257 245 251 242 237 248 250 257 256 260 262 273 272 263 260 255 283 268 266 261 262 269 271 265 264 253 247 255 253 250
314 308 301 290 294 297 298 301 301 303 302 300 296 294 292 296 290 288 296 306 309 306 296 307 304 309 320 308 180 317 256 234 223 175 160 115 274 45 51 319 109 134 276 199 171 149 139 248 62 159 259 338 283 268 267 199 290 207 224 236 249 253 242 237 251 252 249 256 253 272 266 267 261 282 270 262 259 259 270 267 259 263 265 256 251 250 252 252
304 303 297 293 293 295 298 297 300 301 301 299 299 295 295 295 296 289 293 299 299 301 300 299 306 312 359 135 48 264 261 226 360 108 138 177 23 67 42 258 338 326 300 276 119 118 175 228 165 99 74 279 220 245 95 138 237 185 236 234 240 253 259 260 238 255 250 242 244 247 266 263 277 167 274 245 253 272 259 252 257 263 259 255 252 250 248 251
293 294 296 301 295 296 298 300 301 301 301 301 298 295 294 294 294 293 292 294 294 296 300 291 296 314 263 177 177 243 245 74 181 164 166 175 76 87 188 172 199 200 229 285 250 200 168 168 119 87 51 226 360 295 171 227 276 281 249 295 271 257 256 269 287 265 252 268 232 235 258 268 266 202 253 251 62 158 242 256 265 257 257 252 250 250 253 253
297 291 295 293 293 296 298 302 301 302 301 301 298 297 296 294 291 294 288 286 286 291 289 293 303 90 359 146 218 230 231 216 168 186 179 153 189 178 181 163 146 190 166 239 272 304 167 157 116 121 208 33 266 315 280 265 344 265 43 296 278 306 301 254 240 249 202 256 211 181 282 272 226 233 241 248 259 276 271 269 259 262 261 259 259 257 255 249
293 293 291 292 295 294 298 302 304 302 302 301 300 297 295 290 289 287 288 283 282 286 287 306 10 85 50 291 230 240 274 271 133 131 116 155 115 63 127 121 104 118 191 183 225 197 102 126 120 161 233 146 263 212 288 323 269 340 298 197 301 310 296 261 248 252 202 244 191 125 263 254 243 239 252 262 247 258 264 267 266 261 265 264 259 258 258 258
285 289 286 295 300 299 302 304 305 303 302 301 300 299 296 292 289 286 285 286 279 271 266 272 94 81 119 249 269 256 261 184 97 94 211 132 149 288 18 43 60 54 18 158 79 175 86 92 120 173 153 171 247 290 342 341 336 238 253 74 237 348 260 294 183 235 192 200 162 161 240 264 252 251 258 252 227 231 254 265 263 269 269 264 260 257 257 260
289 291 292 293 296 304 304 305 304 306 305 306 301 299 296 294 290 285 280 280 273 243 229 229 66 99 156 262 267 302 270 123 222 223 170 143 153 318 284 52 38 14 347 98 133 348 126 92 87 98 251 258 11 328 298 352 346 290 3 266 313 200 281 300 291 174 207 281 175 153 240 252 264 270 258 233 182 202 254 266 269 270 264 268 271 263 257 257
291 293 302 294 300 302 304 303 304 306 309 309 304 298 296 290 285 278 271 262 258 226 107 68 183 135 328 297 283 360 21 197 241 193 222 136 145 191 210 84 62 4 15 350 64 83 33 113 126 187 175 44 151 178 298 353 331 339 188 275 275 248 261 330 287 232 237 118 239 180 234 300 273 246 268 94 127 162 250 274 277 280 282 282 275 266 260 265
276 298 299 301 295 299 303 303 306 308 311 309 305 298 294 288 280 269 272 246 215 72 124 114 127 136 220 242 168 310 241 232 315 85 118 39 127 152 92 82 192 197 69 74 71 77 2 95 271 55 38 151 169 111 246 286 286 291 271 226 216 239 290 279 299 330 50 141 210 248 252 255 265 287 289 284 270 286 279 278 278 276 274 272 270 267 260 257
277 277 286 297 296 299 300 305 306 311 313 312 307 305 295 285 276 292 291 166 94 88 174 116 143 110 272 89 250 237 309 101 275 206 120 211 124 99 115 126 244 159 94 61 353 79 300 81 55 198 360 173 135 121 156 234 208 220 233 241 289 289 237 253 297 262 44 234 221 244 246 263 271 274 273 273 278 273 271 270 271 273 272 271 269 265 260 255
280 273 283 286 297 296 303 303 308 313 317 315 322 314 298 288 319 211 277 162 116 42 8 192 137 140 215 254 247 340 53 248 69 113 204 134 95 104 86 146 114 123 310 60 284 88 349 77 29 54 233 197 213 191 199 219 160 207 166 212 250 285 291 274 255 269 253 280 254 239 248 264 268 270 276 273 263 260 266 267 266 266 267 271 268 263 258 252
281 281 272 283 289 296 300 309 311 317 319 327 1 347 25 14 222 225 286 257 230 193 171 175 192 275 326 324 152 247 246 36 90 277 341 280 97 82 258 113 28 71 97 185 234 252 146 142 187 206 210 212 216 208 223 219 211 270 272 289 278 279 281 272 268 257 193 258 247 247 256 264 272 276 278 276 279 265 266 265 265 266 269 268 264 258 254 250
286 282 286 285 287 296 296 304 309 313 314 329 357 26 158 190 152 257 188 233 236 269 259 212 192 189 204 89 123 139 124 259 108 261 232 160 81 128 220 96 45 186 237 176 144 253 86 243 247 220 213 207 216 219 240 268 280 266 279 279 285 252 276 283 288 311 280 211 291 283 284 274 274 282 277 277 267 262 255 260 264 267 266 265 261 260 252 252
273 278 282 287 291 288 298 299 303 305 304 17 298 222 296 275 226 270 302 294 275 235 240 241 135 283 318 183 234 169 74 89 276 259 275 134 224 148 223 117 152 216 279 101 23 130 200 219 243 211 222 221 231 212 214 217 247 255 235 276 293 275 253 282 265 323 248 142 266 309 304 288 287 282 281 273 265 260 252 238 253 259 270 268 264 259 265 274
256 277 277 296 289 288 287 297 291 295 346 206 233 221 254 238 347 330 298 276 266 260 216 221 226 231 265 311 291 120 203 206 221 213 207 171 128 219 140 118 169 165 79 143 168 177 268 260 258 223 193 196 241 215 206 233 234 236 258 282 259 266 7 306 260 14 352 81 295 309 302 288 291 280 268 274 269 261 257 240 242 238 248 256 259 256 251 256
252 265 281 281 285 284 286 292 298 300 235 222 240 230 268 328 331 336 338 249 284 308 196 215 183 161 196 167 216 148 175 251 129 246 212 156 169 193 111 155 136 157 214 188 193 195 227 218 148 148 187 183 214 216 201 228 262 227 209 239 265 274 241 203 293 338 307 298 188 330 295 285 275 283 306 296 293 261 269 252 256 256 240 252 274 285 237 224
241 247 262 276 280 282 284 299 300 239 176 157 245 249 265 281 290 241 329 312 345 292 185 53 173 196 209 57 65 165 254 326 215 225 187 151 161 83 233 183 114 220 205 187 178 250 270 263 141 95 119 187 201 260 228 178 256 303 228 213 237 256 271 267 308 356 345 327 343 46 342 285 283 281 263 282 305 288 231 274 272 262 266 255 247 240 234 249
236 216 216 258 271 280 299 294 229 223 164 212 213 266 278 286 283 207 107 74 298 264 351 211 183 188 117 140 86 170 72 244 231 214 151 216 200 157 66 218 149 224 206 152 196 210 230 316 141 239 229 200 204 237 233 152 217 344 271 196 229 246 259 272 295 41 295 268 317 42 94 279 308 278 288 285 292 291 295 277 282 281 269 245 230 223 220 213
218 215 205 240 250 268 269 224 359 246 159 267 315 322 321 335 338 89 8 344 330 231 160 270 18 252 264 168 128 115 124 271 327 26 89 297 189 336 148 238 8 264 154 160 40 266 119 353 107 62 188 194 229 267 225 159 152 248 249 116 131 139 190 224 186 188 250 279 284 156 170 234 298 288 232 277 278 277 287 296 292 274 258 229 236 233 226 219
213 215 207 223 240 226 221 323 302 245 224 153 296 319 324 324 359 60 80 4 284 118 116 240 227 308 83 201 109 145 197 322 183 257 133 299 83 344 135 217 185 191 193 113 205 263 168 247 195 207 176 199 223 225 171 170 164 217 226 163 83 80 158 106 121 210 256 35 287 335 129 245 246 271 291 270 289 286 293 288 292 293 277 267 247 225 218 220
199 213 222 234 234 241 223 208 286 249 257 313 319 331 334 308 84 102 122 146 225 90 32 74 279 49 15 80 106 92 32 31 181 297 318 33 52 147 209 240 184 232 268 176 221 284 285 205 218 171 154 223 224 263 175 162 215 280 189 85 73 69 71 122 173 242 335 76 268 255 194 218 272 274 292 320 213 275 267 287 297 287 262 265 253 241 249 282
199 204 201 222 238 305 259 156 230 241 323 314 317 321 320 87 49 40 26 237 162 248 124 204 138 213 82 131 264 90 176 309 136 332 11 163 297 26 276 152 131 298 281 347 251 240 246 353 162 130 201 210 146 141 142 266 187 83 59 67 355 31 27 16 67 80 38 235 258 232 219 204 297 270 231 174 208 204 246 294 306 310 306 274 250 249 264 280
202 206 200 202 192 217 139 231 238 235 268 305 314 292 90 40 118 101 191 228 45 192 36 123 180 51 134 143 185 271 113 153 41 104 195 354 360 45 352 133 41 43 17 326 277 290 291 13 151 249 98 84 110 81 351 50 116 104 89 111 15 326 8 35 339 42 189 266 260 245 191 201 215 285 279 253 295 264 170 125 313 303 278 259 258 269 268 252
203 203 205 201 181 169 197 228 185 215 333 300 326 88 93 156 7 173 211 316 252 221 150 196 246 147 185 309 82 166 171 94 183 138 166 202 171 176 215 186 160 125 317 222 260 9 265 224 225 352 200 131 125 107 280 26 32 106 80 46 87 274 22 285 17 263 215 215 262 332 180 256 239 232 282 295 274 270 231 234 266 265 257 246 256 256 253 229
207 206 209 211 185 201 219 240 338 1 7 356 90 63 91 116 213 221 260 294 246 150 259 102 182 149 169 95 251 192 83 166 210 179 128 245 147 249 270 204 207 141 210 257 228 9 277 317 225 236 51 214 134 163 210 162 242 123 162 152 117 207 215 257 262 251 301 292 276 330 44 279 261 285 226 241 254 255 266 249 240 237 240 232 222 227 230 230
210 207 211 200 203 198 194 188 204 26 4 357 113 73 44 128 236 241 218 226 194 340 61 104 97 54 142 176 239 157 192 246 141 202 156 190 158 244 263 255 208 266 119 135 182 194 309 336 265 147 221 135 188 193 180 167 162 202 121 155 181 142 157 222 205 204 217 215 266 287 50 238 52 238 226 224 255 262 240 253 250 244 243 265 273 201 234 236
211 214 191 218 211 204 193 178 142 105 71 141 101 136 180 214 228 185 227 252 265 340 72 317 119 103 253 312 275 250 159 215 179 120 176 143 225 187 200 221 219 142 187 136 254 102 207 221 268 6 200 89 178 336 131 100 59 207 158 84 93 238 134 207 211 158 272 334 345 231 215 206 209 272 302 274 270 266 254 248 244 255 257 204 180 198 208 219
207 217 174 222 194 208 174 169 146 136 171 158 153 202 209 178 205 173 225 158 135 152 158 59 84 126 238 304 306 208 293 148 225 113 234 195 197 199 216 209 189 192 176 184 195 187 37 273 308 327 50 103 205 116 200 127 190 235 118 205 212 176 120 79 12 355 78 38 260 205 311 273 303 298 281 303 343 297 33 207 223 240 227 178 190 200 213 220
189 142 214 197 214 163 171 154 147 135 190 203 176 221 183 252 191 173 214 155 205 134 133 127 244 160 207 224 198 195 227 70 221 151 243 167 280 208 234 255 177 190 205 159 275 191 151 241 305 105 195 315 204 162 44 344 149 103 186 242 222 160 94 135 228 338 68 175 264 107 227 276 48 285 323 337 336 302 309 359 273 254 172 189 211 208 210 213
163 188 260 239 204 163 158 154 136 156 165 168 218 217 195 204 227 173 121 98 82 26 123 171 274 150 248 156 252 166 223 174 214 145 221 194 249 176 134 217 200 187 205 229 185 271 140 297 292 284 139 265 352 108 324 319 187 155 191 260 118 213 211 301 86 285 248 269 270 294 258 261 198 250 326 288 279 279 288 334 130 221 223 224 230 235 243 288
140 89 282 251 173 159 144 145 146 164 149 195 220 205 231 231 237 192 191 150 133 133 164 231 153 224 138 184 197 108 163 183 188 191 125 223 175 208 186 176 251 201 203 171 220 241 26 189 295 285 158 312 4 104 203 207 360 12 360 346 271 109 202 120 211 186 116 261 53 290 6 260 187 218 207 239 248 257 250 281 225 219 217 219 229 225 222 229
148 167 248 108 195 140 142 137 148 185 194 210 190 222 179 209 227 236 224 164 221 144 232 188 223 146 187 210 157 164 215 140 163 218 166 238 201 266 192 236 171 111 160 189 191 108 226 124 260 285 304 89 203 188 215 165 169 170 199 279 354 226 216 118 264 158 180 179 178 211 309 270 240 228 204 241 245 253 222 220 240 231 227 219 216 214 216 222
172 153 249 73 139 140 135 133 152 195 203 303 198 206 149 206 242 232 200 245 219 4 167 178 165 190 185 129 262 186 166 171 170 175 201 262 182 291 221 180 152 134 108 67 257 228 200 185 211 323 181 231 246 246 210 174 181 175 174 203 184 143 163 178 263 33 115 112 245 131 256 283 274 190 224 245 263 277 257 212 237 251 240 222 218 223 216 215
155 181 236 127 157 152 144 150 218 167 211 209 202 167 212 183 244 250 182 343 203 228 15 153 247 180 162 198 174 174 150 178 196 193 246 201 235 203 276 150 158 149 137 180 194 211 161 141 102 221 204 214 227 270 340 191 125 180 165 227 171 171 104 127 214 262 43 244 116 166 63 270 251 212 233 240 254 254 249 202 242 256 248 241 239 235 226 218
193 192 27 146 177 169 163 216 163 195 220 243 321 244 256 305 208 206 169 187 198 181 169 217 204 187 254 186 207 167 167 209 162 205 201 205 241 207 229 163 133 141 84 322 65 209 117 135 252 282 301 306 327 328 48 43 78 6 279 180 139 194 197 200 183 181 153 169 176 289 200 259 265 268 262 270 264 269 277 204 233 303 288 281 254 247 245 241
167 152 121 234 220 221 211 200 200 210 225 286 225 235 205 226 167 189 201 197 187 157 196 198 343 216 236 168 144 195 192 220 217 192 261 210 244 249 171 171 159 175 155 218 153 221 147 253 141 299 349 341 340 350 14 343 65 227 197 207 206 215 147 153 108 137 231 207 180 150 234 262 283 278 316 301 312 316 305 277 210 294 295 277 286 284 270 263
130 81 103 174 181 203 204 244 159 200 207 210 199 214 212 233 215 196 180 212 183 174 152 235 193 150 215 174 193 148 198 194 248 222 200 176 235 346 292 177 201 184 187 266 293 165 169 174 137 173 217 245 261 241 245 238 219 209 232 204 200 196 182 117 226 189 209 254 193 184 243 255 257 317 316 293 289 291 278 271 251 220 249 288 298 279 267 268
171 164 160 195 206 222 273 323 309 263 201 203 225 230 206 230 293 220 183 240 183 203 205 177 11 160 191 146 200 206 228 251 199 211 175 235 255 285 229 289 211 204 238 154 207 143 183 157 188 189 191 223 234 218 242 108 77 175 230 189 202 205 200 187 84 116 209 215 202 210 223 256 273 263 254 261 265 258 259 267 281 283 274 259 252 269 273 265
173 183 158 182 68 254 245 215 212 181 227 171 208 184 209 221 204 266 187 224 198 185 220 203 188 173 230 168 200 218 228 222 237 223 208 194 257 237 303 177 38 166 160 125 212 94 83 204 226 223 222 231 241 238 199 174 186 221 199 220 206 185 191 189 183 217 211 192 253 210 231 239 258 266 263 254 254 259 266 258 236 247 262 260 259 260 266 265
196 211 159 192 161 194 205 231 202 196 267 249 234 149 208 211 206 218 86 235 82 193 197 286 199 217 178 185 150 219 197 212 174 211 169 239 127 299 302 327 200 301 112 165 162 172 162 208 231 199 241 243 246 263 209 211 234 223 209 209 194 198 180 193 216 226 208 198 237 197 208 225 248 255 262 261 251 248 248 251 240 229 237 241 243 250 252 252
115 326 211 224 225 214 204 187 168 193 213 215 250 226 230 206 211 207 171 191 176 229 197 229 216 211 199 173 170 229 170 185 245 223 196 210 210 175 217 12 265 35 140 97 155 184 117 236 212 212 241 251 261 258 258 232 250 250 219 223 215 180 193 201 214 220 219 233 242 243 223 226 236 249 252 260 270 259 251 251 244 236 232 228 221 232 238 244
202 179 191 315 325 355 204 170 179 185 209 202 216 226 223 215 218 198 221 163 193 230 194 225 235 169 190 197 198 229 216 201 202 189 229 199 246 187 223 189 145 342 141 193 153 279 164 270 200 199 248 251 256 263 268 249 234 256 241 226 200 199 212 210 217 226 229 252 254 252 247 270 258 243 258 269 280 291 283 263 253 252 242 221 225 231 236 241
47 162 153 146 197 204 141 175 172 188 204 209 217 238 212 220 219 191 217 199 204 201 178 214 221 142 203 204 216 227 226 186 219 213 199 183 221 198 174 254 155 154 176 151 180 267 149 259 46 71 257 275 250 254 262 288 266 254 251 224 195 208 226 214 223 202 200 226 232 241 255 248 257 256 260 282 283 276 271 269 263 253 250 224 228 235 237 235
12 332 84 129 211 178 188 166 196 154 216 209 208 224 205 219 210 158 239 231 229 226 194 210 205 169 224 217 222 226 204 177 217 228 232 217 259 88 209 193 174 162 174 189 145 144 176 151 176 103 244 253 250 280 325 320 319 282 244 197 210 219 221 219 225 184 211 214 232 226 237 234 249 278 292 265 253 263 270 266 268 276 218 220 222 232 236 233